Weather History for Truckee-Tahoe, CA

Change the Weather History Date:

Saturday, October 5, 2013

  Actual Average Record
Temperature  
Mean Temperature 40 °F -  
Max Temperature 66 °F 69 °F 84 °F (1987)
Min Temperature 15 °F 30 °F 15 °F (2013)
Degree Days  
Heating Degree Days 24    
Moisture  
Dew Point 13 °F    
Average Humidity 45    
Maximum Humidity 73    
Minimum Humidity 14    
Precipitation  
Precipitation 0.00 in - - ()
Sea Level Pressure  
Sea Level Pressure 30.42 in    
Wind  
Wind Speed 2 mph (ENE)    
Max Wind Speed 8 mph    
Max Gust Speed -    
Visibility 10 miles    
Events      
Averages and records for this station are not official NWS values.
T = Trace of Precipitation, MM = Missing Value Source: NWS Daily Summary

Daily Weather History Graph

Daily Weather History Graph

Search for Another Location

Airport:

Trip Planner

Search our weather history database for the weather conditions in past years. The results will help you decide how hot, cold, wet, or windy it might be!

Date:

Astronomy

Oct. 05, 2013 Rise Set
Actual Time 7:00 AM PDT 6:36 PM PDT
Civil Twilight 6:34 AM PDT 7:03 PM PDT
Nautical Twilight 6:02 AM PDT 7:34 PM PDT
Astronomical Twilight 5:31 AM PDT 8:05 PM PDT
Moon 7:45 AM PDT (10/5) 6:59 PM PDT (10/5)
Length of Visible Light 12h 29m
Length of Day
11h 35m
New Moon, 1% of the Moon is Illuminated
Oct 5
New Moon
Oct 11
First Quarter
Oct 18
Full
Oct 26
Last Quarter
Nov 3
New

Hourly Weather History & Observations

Time (PDT) Temp. Windchill Dew Point Humidity Pressure Visibility Wind Dir Wind Speed Gust Speed Precip Events Conditions
12:15 AM 24.8 °F - 10.4 °F 54% 30.43 in 10.0 mi Calm Calm - N/A   Clear
12:35 AM 23.0 °F - 6.8 °F 50% 30.43 in 10.0 mi Calm Calm - N/A   Clear
12:55 AM 24.8 °F 20.5 °F 8.6 °F 50% 30.43 in 10.0 mi SE 3.5 mph - N/A   Clear
1:15 AM 24.8 °F 19.1 °F 8.6 °F 50% 30.43 in 10.0 mi West 4.6 mph - N/A   Clear
1:35 AM 24.8 °F 20.5 °F 8.6 °F 50% 30.43 in 10.0 mi NNE 3.5 mph - N/A   Clear
1:55 AM 17.6 °F - 6.8 °F 63% 30.44 in 10.0 mi Calm Calm - N/A   Clear
2:15 AM 21.2 °F - 8.6 °F 58% 30.43 in 10.0 mi Calm Calm - N/A   Clear
2:35 AM 23.0 °F 17.0 °F 10.4 °F 59% 30.43 in 10.0 mi ESE 4.6 mph - N/A   Clear
2:55 AM 21.2 °F - 8.6 °F 58% 30.43 in 10.0 mi Calm Calm - N/A   Clear
3:15 AM 23.0 °F - 10.4 °F 59% 30.44 in 10.0 mi Calm Calm - N/A   Clear
3:35 AM 23.0 °F - 8.6 °F 54% 30.44 in 10.0 mi Calm Calm - N/A   Clear
3:55 AM 19.4 °F 14.3 °F 8.6 °F 63% 30.44 in 10.0 mi East 3.5 mph - N/A   Clear
4:15 AM 17.6 °F - 8.6 °F 68% 30.44 in 10.0 mi Calm Calm - N/A   Clear
4:35 AM 19.4 °F 12.8 °F 8.6 °F 63% 30.44 in 10.0 mi East 4.6 mph - N/A   Clear
4:55 AM 17.6 °F - 8.6 °F 68% 30.44 in 10.0 mi Calm Calm - N/A   Clear
5:15 AM 19.4 °F - 8.6 °F 63% 30.44 in 10.0 mi Calm Calm - N/A   Clear
5:35 AM 15.8 °F 10.2 °F 8.6 °F 73% 30.45 in 10.0 mi SE 3.5 mph - N/A   Clear
5:55 AM 19.4 °F 14.3 °F 10.4 °F 68% 30.45 in 10.0 mi WSW 3.5 mph - N/A   Clear
6:15 AM 19.4 °F 14.3 °F 10.4 °F 68% 30.45 in 10.0 mi SSE 3.5 mph - N/A   Clear
6:35 AM 17.6 °F - 10.4 °F 73% 30.46 in 10.0 mi Calm Calm - N/A   Clear
6:50 AM 17.6 °F - 10.4 °F 73% 30.46 in 10.0 mi Calm Calm - N/A   Clear
7:50 AM 21.2 °F - 12.2 °F 68% 30.47 in 10.0 mi Calm Calm - N/A   Clear
8:45 AM 28.4 °F - 14.0 °F 55% 30.49 in 10.0 mi Calm Calm - N/A   Clear
9:45 AM 39.2 °F - 15.8 °F 39% 30.48 in 10.0 mi Calm Calm - N/A   Clear
11:45 AM 51.8 °F - 15.8 °F 24% 30.46 in 10.0 mi NNE 4.6 mph - N/A   Clear
12:50 PM 57.2 °F - 17.6 °F 21% 30.43 in 10.0 mi NNW 6.9 mph - N/A   Clear
1:53 PM 60.8 °F - 17.6 °F 19% 30.40 in 10.0 mi North 8.1 mph - N/A   Clear
2:45 PM 64.4 °F - 15.8 °F 15% 30.38 in 10.0 mi North 6.9 mph - N/A   Clear
3:45 PM 66.2 °F - 15.8 °F 14% 30.37 in 10.0 mi North 8.1 mph - N/A   Clear
4:45 PM 66.2 °F - 15.8 °F 14% 30.37 in 10.0 mi NNE 8.1 mph - N/A   Clear
5:45 PM 62.6 °F - 15.8 °F 16% 30.36 in 10.0 mi NE 5.8 mph - N/A   Clear
5:55 PM 62.6 °F - 15.8 °F 16% 30.37 in 10.0 mi NE 4.6 mph - N/A   Clear
6:15 PM 59.0 °F - 15.8 °F 19% 30.37 in 10.0 mi ENE 6.9 mph - N/A   Clear
6:35 PM 57.2 °F - 14.0 °F 18% 30.37 in 10.0 mi NE 4.6 mph - N/A   Clear
6:55 PM 55.4 °F - 14.0 °F 20% 30.38 in 10.0 mi NE 3.5 mph - N/A   Clear
7:15 PM 51.8 °F - 15.8 °F 24% 30.38 in 10.0 mi Calm Calm - N/A   Clear
7:35 PM 44.6 °F 43.1 °F 15.8 °F 31% 30.39 in 10.0 mi SW 3.5 mph - N/A   Clear
7:55 PM 44.6 °F 43.1 °F 17.6 °F 34% 30.40 in 10.0 mi SSE 3.5 mph - N/A   Clear
8:15 PM 42.8 °F 41.1 °F 17.6 °F 36% 30.40 in 10.0 mi South 3.5 mph - N/A   Clear
8:35 PM 41.0 °F 39.0 °F 17.6 °F 39% 30.40 in 10.0 mi South 3.5 mph - N/A   Clear
8:55 PM 39.2 °F - 15.8 °F 39% 30.41 in 10.0 mi Calm Calm - N/A   Clear
9:15 PM 39.2 °F - 15.8 °F 39% 30.41 in 10.0 mi Calm Calm - N/A   Clear
9:35 PM 39.2 °F - 15.8 °F 39% 30.41 in 10.0 mi Calm Calm - N/A   Clear
9:55 PM 37.4 °F - 15.8 °F 41% 30.41 in 10.0 mi Calm Calm - N/A   Clear
10:15 PM 35.6 °F - 15.8 °F 44% 30.41 in 3.0 mi Calm Calm - N/A   Haze
10:35 PM 33.8 °F - 17.6 °F 52% 30.41 in 10.0 mi Calm Calm - N/A   Clear
10:55 PM 33.8 °F - 15.8 °F 48% 30.41 in 10.0 mi Calm Calm - N/A   Clear
11:15 PM 32.0 °F - 15.8 °F 51% 30.41 in 10.0 mi Calm Calm - N/A   Clear
11:35 PM 32.0 °F - 17.6 °F 55% 30.41 in 10.0 mi Calm Calm - N/A   Clear
11:55 PM 32.0 °F - 17.6 °F 55% 30.41 in 10.0 mi Calm Calm - N/A   Clear